Latest Coastal Weather Observations for Cape Nelson

IDV60701

Issued at 5:21 pm EDT Thursday 29 January 2015 (issued every 10 minutes, with the page automatically refreshed every 10 minutes)

About coastal observations | Map of coastal stations | Coastal observations for VIC | Marine services | Other Formats
Station Details ID: 090184 Name: CAPE NELSON LIGHTHOUSE Lat: -38.43 Lon: 141.54 Height: 45.4 m
Data from the previous 72 hours. | See also: Recent months at Cape Nelson
Date/Time
EDT
Temp

°C
Wind Pressure Rain
since 9am
mm
Weather Cloud Vis
km
Sea
Height
m
Swell
Dir
 
Speed
knots
Gust
knots
hPa Trend Height
m
Period
s
Dir
29/05:00pm 18.5 ESE 14 21 1020.3 - 0.0 - - - - - - -
29/04:30pm 18.7 ESE 13 21 1020.6 - 0.0 - - - - - - -
29/04:00pm 18.7 ESE 13 19 1020.8 - 0.0 - - - - - - -
29/03:30pm 19.1 ESE 13 20 1020.9 - 0.0 - - - - - - -
29/03:00pm 19.6 ESE 11 17 1021.3 - 0.0 - - - - - - -
29/02:30pm 19.0 SE 12 17 1021.4 - 0.0 - - - - - - -
29/02:00pm 19.0 SE 11 17 1021.5 - 0.0 - - - - - - -
29/01:30pm 18.5 SE 12 18 1021.7 - 0.0 - - - - - - -
29/01:00pm 18.8 ESE 11 16 1022.1 - 0.0 - - - - - - -
29/12:30pm 18.9 SE 11 16 1022.2 - 0.0 - - - - - - -
29/12:00pm 18.9 ESE 10 15 1022.3 - 0.0 - - - - - - -
29/11:30am 18.7 ESE 10 15 1022.3 - 0.0 - - - - - - -
29/11:00am 18.3 ESE 10 15 1022.4 - 0.0 - - - - - - -
29/10:30am 18.1 SE 11 15 1022.3 - 0.0 - - - - - - -
29/10:00am 17.8 SE 10 16 1022.3 - 0.0 - - - - - - -
29/09:30am 17.1 ESE 10 15 1022.4 - 0.0 - - - - - - -
29/09:00am 17.1 SE 10 14 1022.2 - 0.0 - - - - - - -
29/08:30am 16.7 SE 10 16 1022.0 - 0.0 - - - - - - -
29/08:00am 16.0 SE 10 14 1021.8 - 0.0 - - - - - - -
29/07:30am 15.7 SE 10 15 1021.5 - 0.0 - - - - - - -
29/07:00am 15.1 SE 9 14 1021.2 - 0.0 - - - - - - -
29/06:30am 15.0 SE 10 16 1020.9 - 0.0 - - - - - - -
29/06:00am 15.0 ESE 10 15 1020.7 - 0.0 - - - - - - -
29/05:30am 15.0 ESE 11 17 1020.5 - 0.0 - - - - - - -
29/05:00am 15.1 ESE 11 17 1020.5 - 0.0 - - - - - - -
29/04:30am 15.3 ESE 11 19 1020.6 - 0.0 - - - - - - -
29/04:00am 15.2 ESE 11 17 1020.6 - 0.0 - - - - - - -
29/03:30am 15.2 ESE 13 20 1020.7 - 0.0 - - - - - - -
29/03:00am 15.0 ESE 13 20 1020.7 - 0.0 - - - - - - -
29/02:30am 14.9 ESE 13 19 1020.8 - 0.0 - - - - - - -
29/02:00am 15.0 ESE 14 20 1021.0 - 0.0 - - - - - - -
29/01:30am 15.1 ESE 13 20 1021.2 - 0.0 - - - - - - -
29/01:00am 15.2 ESE 13 22 1021.3 - 0.0 - - - - - - -
29/12:30am 15.3 SE 15 23 1021.7 - 0.0 - - - - - - -
29/12:00am 15.4 SE 17 24 1021.7 - 0.0 - - - - - - -
 
Date/Time
EDT
Temp

°C
Wind Pressure Rain
since 9am
mm
Weather Cloud Vis
km
Sea
Height
m
Swell
Dir
 
Speed
knots
Gust
knots
hPa Trend Height
m
Period
s
Dir
28/11:45pm 15.5 ESE 15 25 1021.7 - 0.0 - - - - - - -
28/11:30pm 15.5 SE 18 25 1021.7 - 0.0 - - - - - - -
28/11:00pm 15.7 ESE 16 26 1021.7 - 0.0 - - - - - - -
28/10:30pm 15.9 ESE 15 27 1021.7 - 0.0 - - - - - - -
28/10:00pm 15.9 SE 18 28 1021.6 - 0.0 - - - - - - -
28/09:34pm 16.3 ESE 16 27 1021.2 - 0.0 - - - - - - -
28/09:30pm 16.2 ESE 16 25 1021.1 - 0.0 - - - - - - -
28/09:06pm 16.3 SE 18 28 1021.1 - 0.0 - - - - - - -
28/09:00pm 16.2 SE 18 26 1021.1 - 0.0 - - - - - - -
28/08:34pm 16.9 ESE 16 26 1021.0 - 0.0 - - - - - - -
28/08:30pm 16.6 ESE 17 26 1020.9 - 0.0 - - - - - - -
28/08:00pm 16.9 SE 16 26 1020.7 - 0.0 - - - - - - -
28/07:34pm 17.1 ESE 16 27 1020.5 - 0.0 - - - - - - -
28/07:30pm 17.3 ESE 15 24 1020.5 - 0.0 - - - - - - -
28/07:00pm 17.5 ESE 16 27 1020.1 - 0.0 - - - - - - -
28/06:32pm 17.8 ESE 17 27 1020.1 - 0.0 - - - - - - -
28/06:30pm 17.9 SE 18 27 1020.0 - 0.0 - - - - - - -
28/06:00pm 17.9 ESE 17 28 1020.0 - 0.0 - - - - - - -
28/05:39pm 18.0 ESE 18 28 1020.0 - 0.0 - - - - - - -
28/05:30pm 18.2 SE 19 26 1019.9 - 0.0 - - - - - - -
28/05:00pm 18.4 ESE 17 28 1019.9 - 0.0 - - - - - - -
28/04:30pm 18.4 ESE 19 29 1019.8 - 0.0 - - - - - - -
28/04:00pm 18.8 SE 19 29 1019.9 - 0.0 - - - - - - -
28/03:58pm 18.9 SE 19 29 1019.9 - 0.0 - - - - - - -
28/03:30pm 18.8 SE 18 26 1020.2 - 0.0 - - - - - - -
28/03:23pm 18.9 SE 17 27 1020.2 - 0.0 - - - - - - -
28/03:00pm 18.7 ESE 18 27 1020.0 - 0.0 - - - - - - -
28/02:30pm 18.7 ESE 17 27 1020.3 - 0.0 - - - - - - -
28/02:01pm 18.6 SE 19 29 1020.4 - 0.0 - - - - - - -
28/02:00pm 18.8 SE 19 28 1020.3 - 0.0 - - - - - - -
28/01:30pm 18.5 SE 19 28 1020.4 - 0.0 - - - - - - -
28/01:00pm 18.9 SE 17 26 1020.7 - 0.0 - - - - - - -
28/12:30pm 18.5 SE 15 21 1020.8 - 0.0 - - - - - - -
28/12:00pm 18.2 SE 16 23 1021.0 - 0.0 - - - - - - -
28/11:30am 18.1 SE 16 24 1021.0 - 0.0 - - - - - - -
28/11:00am 16.5 SE 18 24 1021.0 - 0.0 - - - - - - -
28/10:30am 16.6 SE 20 26 1020.8 - 0.0 - - - - - - -
28/10:00am 15.8 SE 19 25 1021.0 - 0.0 - - - - - - -
28/09:30am 15.6 SE 19 25 1020.8 - 0.0 - - - - - - -
28/09:00am 15.5 SE 18 25 1020.6 - 0.0 - - - - - - -
28/08:30am 15.5 SE 18 25 1020.3 - 0.0 - - - - - - -
28/08:00am 15.5 SE 19 25 1019.9 - 0.0 - - - - - - -
28/07:30am 15.2 SE 19 25 1019.7 - 0.0 - - - - - - -
28/07:00am 15.3 SE 19 24 1019.3 - 0.0 - - - - - - -
28/06:30am 15.1 SE 15 20 1019.1 - 0.0 - - - - - - -
28/06:00am 14.8 SSE 18 25 1019.0 - 0.0 - - - - - - -
28/05:30am 14.7 SE 17 22 1018.9 - 0.0 - - - - - - -
28/05:00am 14.7 SE 17 25 1018.9 - 0.0 - - - - - - -
28/04:30am 14.7 SE 19 26 1019.1 - 0.0 - - - - - - -
28/04:01am 14.8 SE 19 29 1019.2 - 0.0 - - - - - - -
28/04:00am 15.1 SE 19 26 1019.2 - 0.0 - - - - - - -
28/03:30am 15.0 SE 18 25 1019.3 - 0.0 - - - - - - -
28/03:00am 15.0 SE 17 27 1019.3 - 0.0 - - - - - - -
28/02:46am 15.0 SE 15 25 1019.5 - 0.0 - - - - - - -
28/02:30am 14.9 SE 17 24 1019.5 - 0.0 - - - - - - -
28/02:00am 15.1 SE 17 25 1019.7 - 0.0 - - - - - - -
28/01:33am 14.9 ESE 15 27 1019.8 - 0.0 - - - - - - -
28/01:30am 15.0 ESE 14 21 1019.8 - 0.0 - - - - - - -
28/01:00am 15.1 SE 15 23 1019.8 - 0.0 - - - - - - -
28/12:36am 15.0 SE 15 25 1019.9 - 0.0 - - - - - - -
28/12:30am 15.0 SE 15 22 1020.0 - 0.0 - - - - - - -
28/12:00am 15.0 SE 17 23 1019.9 - 0.0 - - - - - - -
 
Date/Time
EDT
Temp

°C
Wind Pressure Rain
since 9am
mm
Weather Cloud Vis
km
Sea
Height
m
Swell
Dir
 
Speed
knots
Gust
knots
hPa Trend Height
m
Period
s
Dir
27/11:30pm 14.9 SE 17 24 1020.0 - 0.0 - - - - - - -
27/11:00pm 15.0 SE 14 21 1020.2 - 0.0 - - - - - - -
27/10:30pm 14.9 SE 15 22 1020.2 - 0.0 - - - - - - -
27/10:00pm 14.9 SE 17 23 1020.2 - 0.0 - - - - - - -
27/09:30pm 14.7 SE 19 23 1020.1 - 0.0 - - - - - - -
27/09:00pm 14.7 SSE 18 24 1019.9 - 0.0 - - - - - - -
27/08:30pm 14.8 SE 17 22 1019.7 - 0.0 - - - - - - -
27/08:00pm 15.0 SSE 19 25 1019.6 - 0.0 - - - - - - -
27/07:30pm 14.9 SSE 17 22 1019.4 - 0.0 - - - - - - -
27/07:00pm 15.8 SSE 18 24 1019.3 - 0.0 - - - - - - -
27/06:30pm 16.3 SSE 17 22 1019.0 - 0.0 - - - - - - -
27/06:00pm 16.6 SE 18 22 1019.0 - 0.0 - - - - - - -
27/05:30pm 16.4 SSE 15 21 1019.0 - 0.0 - - - - - - -
27/05:00pm 16.3 SSE 17 22 1018.9 - 0.0 - - - - - - -
27/04:30pm 16.8 SSE 17 21 1019.1 - 0.0 - - - - - - -
27/04:00pm 15.8 SSE 16 21 1019.3 - 0.0 - - - - - - -
27/03:30pm 15.6 SSE 15 23 1019.3 - 0.0 - - - - - - -
27/03:00pm 15.9 SSE 19 24 1019.2 - 0.0 - - - - - - -
27/02:30pm 16.9 SSE 15 19 1019.1 - 0.0 - - - - - - -
27/02:00pm 17.4 SSE 12 16 1019.4 - 0.0 - - - - - - -
27/01:30pm 17.6 SSE 12 16 1019.5 - 0.0 - - - - - - -
27/01:00pm 17.3 SSE 13 17 1019.5 - 0.0 - - - - - - -
27/12:30pm 17.0 SSE 15 18 1019.6 - 0.0 - - - - - - -
27/12:00pm 16.5 SSE 14 17 1019.7 - 0.0 - - - - - - -
27/11:30am 15.8 S 13 17 1019.6 - 0.0 - - - - - - -
27/11:00am 16.1 S 13 16 1019.7 - 0.0 - - - - - - -
27/10:30am 15.3 S 13 17 1019.5 - 0.0 - - - - - - -
27/10:00am 15.2 SSE 11 14 1019.4 - 0.0 - - - - - - -
27/09:30am 14.8 SSE 11 14 1019.5 - 0.0 - - - - - - -
27/09:00am 14.3 SSE 10 14 1019.3 - 0.0 - - - - - - -
27/08:30am 14.0 S 15 18 1019.0 - 0.0 - - - - - - -
27/08:00am 14.2 S 11 15 1018.6 - 0.0 - - - - - - -
27/07:30am 13.9 S 11 17 1018.3 - 0.0 - - - - - - -
27/07:00am 13.7 S 13 17 1018.0 - 0.0 - - - - - - -
27/06:30am 13.8 S 13 18 1017.7 - 0.0 - - - - - - -
27/06:00am 14.2 S 12 17 1017.6 - 0.0 - - - - - - -
27/05:30am 14.0 S 8 12 1017.6 - 0.0 - - - - - - -
27/05:00am 13.8 S 8 11 1017.7 - 0.0 - - - - - - -
27/04:30am 13.7 SSE 9 12 1017.7 - 0.0 - - - - - - -
27/04:00am 13.8 S 9 12 1017.9 - 0.0 - - - - - - -
27/03:30am 13.8 S 9 12 1018.1 - 0.0 - - - - - - -
27/03:00am 13.7 S 7 10 1018.1 - 0.0 - - - - - - -
27/02:30am 13.6 S 7 10 1018.1 - 0.0 - - - - - - -
27/02:00am 13.6 S 8 11 1018.2 - 0.0 - - - - - - -
27/01:30am 13.7 S 7 10 1018.4 - 0.0 - - - - - - -
27/01:00am 13.7 S 7 10 1018.5 - 0.0 - - - - - - -
27/12:30am 13.7 S 7 10 1018.7 - 0.0 - - - - - - -
27/12:00am 13.6 S 6 9 1018.8 - 0.0 - - - - - - -
 
Date/Time
EDT
Temp

°C
Wind Pressure Rain
since 9am
mm
Weather Cloud Vis
km
Sea
Height
m
Swell
Dir
 
Speed
knots
Gust
knots
hPa Trend Height
m
Period
s
Dir
26/11:30pm 13.7 S 7 9 1019.0 - 0.0 - - - - - - -
26/11:00pm 13.6 SSE 7 9 1019.3 - 0.0 - - - - - - -
26/10:30pm 13.7 S 6 9 1019.4 - 0.0 - - - - - - -
26/10:00pm 13.9 SSE 8 11 1019.3 - 0.0 - - - - - - -
26/09:30pm 14.0 S 7 11 1019.2 - 0.0 - - - - - - -
26/09:00pm 14.2 S 8 12 1018.9 - 0.0 - - - - - - -
26/08:30pm 14.6 S 9 12 1018.6 - 0.0 - - - - - - -
26/08:00pm 14.9 S 10 14 1018.5 - 0.0 - - - - - - -
26/07:30pm 15.5 S 10 14 1018.2 - 0.0 - - - - - - -
26/07:00pm 15.6 S 11 15 1018.0 - 0.0 - - - - - - -
26/06:30pm 16.0 S 11 16 1018.0 - 0.0 - - - - - - -
26/06:00pm 15.7 S 10 15 1018.0 - 0.0 - - - - - - -
26/05:30pm 15.5 S 10 13 1018.1 - 0.0 - - - - - - -

Other Formats:

Comma delimited format used in spreadsheet applications
http://www.bom.gov.au/fwo/IDV60701/IDV60701.94826.axf

JavaScript Object Notation format (JSON) in row-major order
http://www.bom.gov.au/fwo/IDV60701/IDV60701.94826.json